Find Kosmos-272

NORAD ID: 3818 Int'l Des: 1969-024 Owner: OKB10 Country: SU operational
LEOCIRCULAR

リアルタイム位置

3D地球を読み込み中...

Kosmos-272について

説明を読み込み中...

次回通過

Passes for default location (London). Set your location on the main map for personalized predictions.

高度履歴

Loading altitude history...

軌道要素

1 03818U 69024A 26132.42545986 .00000082 00000-0 25959-3 0 9991
2 03818 73.9905 310.2660 0018874 154.0824 226.0971 13.17948639749148
Epoch: May 12, 2026 • Age: 9 hours

現在のステータス

高度 1219.3 km
速度 7.24 km/s
衛星直下点 -34.70°S, 142.23°E
タイプ other

Most Searched